Flag for United Kingdom Weather past 2 weeks in Northampton, England, United Kingdom

45 °F

Light rain. Fog.

Feels Like: 42 °F
Forecast: 44 / 55 °F
Wind: 5 mph from Southwest

Location: Coventry Airport

Current Time: Dec 1, 2015 at 5:04:42 AM

Latest Report: Dec 1, 2015 at 1:50 AM

Visibility: 2 mi

Pressure: 30.09 "Hg

Humidity: 100%

Dew point: 45 °F

Location of NorthamptonLocation

Historic Weather in Northampton — Graph


Northampton temperature yesterday

Maximum temperature yesterday: 57 °F (at 3:20 PM)
Minimum temperature yesterday: 43 °F (at 6:50 AM)
Average temperature yesterday: 52 °F

Past Weeks' High & Low Weather Summary

High61 °F (Nov 17, 2:50 PM)100% (Nov 16, 8:20 PM)30.24 "Hg (Nov 16, 8:20 PM)
Low28 °F (Nov 23, 7:50 AM)56% (Nov 21, 2:20 PM)29.39 "Hg (Nov 17, 2:20 PM)
Average48 °F86%29.82 "Hg
* Reported Nov 16 6:50 AM — Dec 1 1:50 AM, Northampton, Weather by CustomWeather, © 2015

Note: Actual official high and low records may vary slightly from our data, if they occured in-between our weather recording intervals... More about our weather records


Northampton weather history for previous 24 hours

Time TempWeatherWind HumidityBarometerVisibility
1:50 AM
Tue, Dec 1
45 °FLight rain. Fog.5 mph100%30.09 "Hg2 mi
12:50 AM45 °FLight rain. Partly cloudy.2 mph100%30.07 "Hg3 mi
11:50 PM
Mon, Nov 30
46 °FPartly cloudy.3 mph87%30.07 "HgN/A
11:20 PM46 °FPassing clouds.6 mph87%30.04 "HgN/A
10:20 PM46 °FPassing clouds.5 mph93%30.04 "HgN/A
9:50 PM46 °FPassing clouds.7 mph87%30.01 "HgN/A
9:20 PM48 °FPassing clouds.8 mph87%30.01 "HgN/A
8:50 PM48 °FPassing clouds.8 mph87%30.01 "HgN/A
8:20 PM48 °FPassing clouds.12 mph94%29.98 "HgN/A
7:50 PM48 °FLight rain. Passing clouds.12 mph94%29.95 "HgN/A
7:20 PM52 °FLight rain. Partly cloudy.12 mph94%29.92 "Hg3 mi
6:50 PM54 °FRain. Passing clouds.17 mph94%29.89 "Hg2 mi
6:20 PM55 °FLight rain. Partly cloudy.17 mph94%29.86 "Hg3 mi
5:50 PM55 °FLight rain. Passing clouds.20 mph94%29.83 "Hg3 mi
5:20 PM57 °FPassing clouds.23 mph82%29.83 "HgN/A
4:50 PM57 °FPassing clouds.25 mph82%29.80 "HgN/A
4:20 PM57 °FPartly cloudy.26 mph82%29.80 "HgN/A
3:50 PM57 °FBroken clouds.23 mph82%29.77 "HgN/A
3:20 PM57 °FLight rain. Broken clouds.25 mph82%29.77 "HgN/A
2:50 PM55 °FLight rain. Broken clouds.20 mph88%29.77 "HgN/A
2:20 PM55 °FBroken clouds.22 mph88%29.77 "HgN/A
1:50 PM54 °FLight rain. Broken clouds.24 mph94%29.77 "Hg4 mi
1:20 PM54 °FRain. Broken clouds.22 mph94%29.77 "Hg5 mi
12:50 PM54 °FRain. Broken clouds.21 mph88%29.77 "Hg5 mi
12:20 PM54 °FRain. Broken clouds.22 mph88%29.80 "Hg5 mi
11:50 AM54 °FRain. Broken clouds.24 mph88%29.80 "Hg5 mi
11:20 AM54 °FRain. Broken clouds.26 mph88%29.80 "Hg4 mi
10:50 AM52 °FDrizzle. Partly sunny.16 mph94%29.83 "Hg4 mi
10:20 AM54 °FScattered clouds.20 mph82%29.83 "Hg5 mi
9:50 AM52 °FScattered clouds.21 mph94%29.83 "HgN/A
9:20 AM52 °FScattered clouds.18 mph94%29.86 "HgN/A
8:50 AM50 °FScattered clouds.20 mph94%29.86 "Hg4 mi
8:20 AM48 °FScattered clouds.16 mph100%29.89 "Hg4 mi
7:20 AM45 °FPassing clouds.10 mph100%29.89 "HgN/A
6:50 AM43 °FPassing clouds.8 mph100%29.92 "Hg6 mi
Weather by CustomWeather, © 2015

See weather overviewHow to use our weather pages